Regional Weather Roundup
Issued by NWS

Home | Current Version | Previous Version | Graphics & Text | Print | Product List | Glossary On
Versions: 1 2 3 4 5 6 7 8 9 10 11 12 13 14 15 16 17 18 19 20 21 22 23 24 25 26 27 28 29 30 31 32 33 34 35 36 37 38 39 40 41 42 43 44 45 46 47 48 49 50
579
ASUS45 KBOU 271907
RWRCO

WEATHER ROUNDUP FOR COLORADO
NATIONAL WEATHER SERVICE DENVER/BOULDER CO
100 PM MDT FRI MAY 27 2016

NOTE: "FAIR" INDICATES FEW OR NO CLOUDS BELOW 12000 FEET WITH NO
SIGNIFICANT WEATHER AND/OR OBSTRUCTIONS TO VISIBILITY.

COZ001>005-013-030-031-272000-
...NORTHWEST COLORADO...

CITY           SKY/WX    TMP DP  RH WIND       PRES   REMARKS
CRAIG          PTSUNNY   56  38  50 SW10      29.96F
HAYDEN         FAIR      57  34  41 W7        29.95F
MEEKER         CLOUDY    50  41  71 CALM      29.96F
MOUNT WERNER   NOT AVBL
STEAMBOAT SPGS CLOUDY    46  38  75 N13G24    29.98S
WALDEN         FAIR      54  28  37 N17G30    30.00S
$$

COZ006>008-011-272000-
...WEST CENTRAL VALLEYS...

CITY           SKY/WX    TMP DP  RH WIND       PRES   REMARKS
GRAND JUNCTION PTSUNNY   67  34  29 N13       29.89F
MONTROSE       FAIR      63  32  31 VRB3      29.95F
EAGLE          PTSUNNY   55  34  44 W8        29.97F
RIFLE          PTSUNNY   63  35  35 W14       29.90F
DELTA          LGT RAIN  65  41  41 SW6       29.92F
NUCLA          FAIR      66  32  28 N8G21     29.98F
$$

COZ017>023-064>068-272000-
...SOUTHWEST COLORADO...

CITY           SKY/WX    TMP DP  RH WIND       PRES   REMARKS
DURANGO        LGT RAIN  56  33  42 VRB3G21   29.94S
CORTEZ         FAIR      67  32  27 W21G28    29.93F
PAGOSA SPRINGS CLOUDY    56  28  34 W8        29.97S
TELLURIDE      CLOUDY    50  30  46 W6        30.07F
WOLF CREEK PAS FAIR      37  27  65 SW14G21   30.16S
$$

COZ009-010-012-014-032>034-037-058>063-272000-
...CENTRAL COLORADO...

CITY           SKY/WX    TMP DP  RH WIND       PRES   REMARKS
ASPEN          PTSUNNY   54  31  41 NE9       29.98F
BUENA VISTA    PTSUNNY   54  24  30 NW16      29.95S
COPPER MTN     NOT AVBL
BERTHOUD PASS  CLOUDY    27  16  63 N13G33    30.11F THUNDER WCI  16
COTTONWOOD PAS PTSUNNY   48  21  34 SW12G23   30.03F
GUNNISON       FAIR      57  25  28 N12       29.99F
KREMMLING      PTSUNNY   54  32  43 NW13      29.98F
LEADVILLE      PTSUNNY   44  26  49 N15G24    30.03S
SALIDA         PTSUNNY   57  27  31 W8        30.01F
SUNLIGHT       PTSUNNY   41  30  65 NW7       30.14F
WILKERSON PASS PTSUNNY   36  30  80 N9        30.09F
$$

COZ069>075-272000-
...SAN LUIS VALLEY/SANGRE DE CRISTO MOUNTAINS...

CITY           SKY/WX    TMP DP  RH WIND       PRES   REMARKS
ALAMOSA        FAIR      54  36  50 N6        29.96F
LA VETA PASS   PTSUNNY   39  36  87 S7G16     30.04R
SAGUACHE       FAIR      57  28  33 N16G24    29.98S
$$

COZ035-036-038>040-272000-
...NORTHERN COLORADO FRONT RANGE...

CITY           SKY/WX    TMP DP  RH WIND       PRES   REMARKS
DENVER INTL AP TSTM      48  45  89 E13       29.91R FOG
DMNS CITY PARK   N/A     56  38  50 NE16G33   29.89F
AURORA         LGT RAIN  54  48  81 NE18G26   29.92F
FRONT RANGE AP TSTM      46  45  93 NE12G23   29.93R
ERIE MUNI ARPT PTSUNNY   59  43  55 NE12      29.89F
BOULDER MUN AP NOT AVBL
CENTENNIAL     CLOUDY    54  41  61 NE23G31   29.91F THUNDER
BROOMFIELD     PTSUNNY   57  41  54 NE13G21   29.91S
FORT COLLINS   PTSUNNY   30 N/A N/A NW12G25   29.90S WCI  21
LONGMONT       FAIR      67  43  41 NE14G21   29.89F
$$

COZ041-046-047-076>085-087-088-272000-
...PIKES PEAK/PALMER DIVIDE AND SOUTHERN FOOTHILLS...

CITY           SKY/WX    TMP DP  RH WIND       PRES   REMARKS
COLO. SPRINGS  PTSUNNY   55  39  54 N32G45    29.90R
A. F. ACADEMY  PTSUNNY   50  39  66 N26G40    29.90F
SCHRIEVER AFB  NOT AVBL
ELLICOTT       LGT RAIN N/A N/A N/A N33G41    29.87R
FALCON         LGT RAIN  46  40  80 N28G40    29.93S
FORT CARSON    PTSUNNY   57  42  56 N31G39    29.87R
LIMON          LGT RAIN  49  46  90 N25G37    29.84R
MONUMENT HILL  LGT RAIN  39  36  87 N17G39    29.95S
TRINIDAD       CLOUDY    60  35  39 NW20G26   29.86R
$$

COZ042>045-048>051-090-091-272000-
...NORTHEAST COLORADO...

CITY           SKY/WX    TMP DP  RH WIND       PRES   REMARKS
GREELEY ARPT   PTSUNNY   57  46  67 E16G24    29.89S
AKRON          CLOUDY    54  47  77 N22G32    29.84S
BURLINGTON     CLOUDY    57  49  74 NE20      29.76R
WRAY           CLOUDY    61  52  72 NE12      29.80S
STERLING       FAIR      59  46  63 NE17G23   29.84F
HOLYOKE        NOT AVBL
FORT MORGAN    FAIR      60  47  63 N12       29.86F
$$

COZ086-089-092>099-272000-
...SOUTHEAST COLORADO...

CITY           SKY/WX    TMP DP  RH WIND       PRES   REMARKS
PUEBLO         LGT RAIN  61  44  53 N30G38    29.84R
LA JUNTA       CLOUDY    59  47  64 NW24G33   29.78F
LAMAR          CLOUDY    65  46  50 N9        29.67F
SPRINGFIELD      N/A     55  43  63 NW23G30   29.76F
$$




USA.gov is the U.S. government's official web portal to all federal, state and local government web resources and services.